Regional Weather Roundup
Issued by NWS Upton, NY

Current Version | Previous Version | Graphics & Text | Print | Product List | Glossary Off
Versions: 1 2 3 4 5 6 7 8 9 10 11 12 13 14 15 16 17 18 19 20 21 22 23 24 25 26 27 28 29 30 31 32 33 34 35 36 37 38 39 40 41 42 43 44 45 46 47 48 49 50

104
ASUS41 KOKX 231904
RWROKX

REGIONAL WEATHER ROUNDUP
NATIONAL WEATHER SERVICE NEW YORK NY
300 PM EDT MON MAY 23 2016

NOTE: "FAIR" INDICATES FEW OR NO CLOUDS BELOW 12,000 FEET WITH NO
SIGNIFICANT WEATHER AND/OR OBSTRUCTIONS TO VISIBILITY.

NYZ071-072-176-178-NJZ106-104-232000-
NEW YORK CITY METRO AREA


CITY           SKY/WX    TMP DP  RH WIND       PRES   REMARKS
CENTRAL PARK   SUNNY     75  51  43 CALM      29.90F
LAGUARDIA APRT MOSUNNY   73  56  54 S7        29.87F
KENNEDY INTL   PTSUNNY   69  48  47 S9        29.90F
NEWARK/LIBERTY PTSUNNY   72  52  49 S8        29.87F
BRNX BOT. GARD   N/A     75  48  38 E3        29.89F
TETERBORO      MOSUNNY   77  47  34 SE10      29.86F
$$

NYZ177-179-078>081-232000-
LONG ISLAND NEW YORK

CITY           SKY/WX    TMP DP  RH WIND       PRES   REMARKS
FARMINGDALE    SUNNY     72  51  47 SW8       29.88F
ISLIP          MOSUNNY   70  48  45 S9        29.88F
SHIRLEY        SUNNY     71  47  42 S8        29.89F
RIVERHEAD        N/A     73  52  46 CALM      29.87F
WESTHAMPTON    SUNNY     67  44  43 SE10      29.90S
EAST HAMPTON   FAIR      70  43  37 SE16      29.88F
MONTAUK POINT    N/A     69  47  45 VRB6      29.90S
$$

NYZ052-065-067-232000-
HUDSON VALLEY

CITY           SKY/WX    TMP DP  RH WIND       PRES   REMARKS
WHITE PLAINS   MOSUNNY   73  48  41 S9        29.88F
NEWBURGH       MOSUNNY   77  50  38 E9G21     29.89F
MONTGOMERY     PTSUNNY   77  50  38 NE16      29.87F
POUGHKEEPSIE   MOSUNNY   80  51  36 N10       29.86F
ALBANY         MOSUNNY   80  38  22 N15       29.89F
$$

NJZ001-105-106-008-010-013-015-019>022-104-232000-
NEW JERSEY

CITY           SKY/WX    TMP DP  RH WIND       PRES   REMARKS
NEWARK/LIBERTY PTSUNNY   72  52  49 S8        29.87F
TETERBORO      MOSUNNY   77  47  34 SE10      29.86F
CALDWELL       CLOUDY    76  50  40 N5        29.87F
MORRISTOWN     CLOUDY    75  50  41 E8        29.87F
SOMERVILLE     PTSUNNY   78  49  35 VRB3      29.85F
SUSSEX         MOSUNNY   78  47  33 N12G18    29.87F
ANDOVER          N/A     77  46  33 VRB6      29.88F
TRENTON        PTSUNNY   74  52  46 CALM      29.87F
MILLVILLE      PTSUNNY   68  53  58 VRB6      29.89S
ATLANTIC CITY  PTSUNNY   68  51  54 E10       29.90F
WRIGHTSTOWN    NOT AVBL
TOMS RIVER     CLOUDY    70  48  46 N6        29.90F
BELMAR         CLOUDY    67  50  54 S6        29.91F
$$

PAZ047>061-062-071-232000-
EASTERN PENNSYLVANIA

CITY           SKY/WX    TMP DP  RH WIND       PRES   REMARKS
PHILADELPHIA   PTSUNNY   76  52  43 E8        29.88F
ALLENTOWN      MOSUNNY   80  50  34 NE7       29.88F
SCRANTON       PTSUNNY   65  53  65 CALM      29.92F
$$

CTZ002-004>006-009-010-012-RIZ004-006-007-MAZ004-011-015-232000-
SOUTHERN NEW ENGLAND
 IN CT

CITY           SKY/WX    TMP DP  RH WIND       PRES   REMARKS
BRADLEY INTL   PTSUNNY   79  47  32 N12G17    29.85F
HARTFORD       MOSUNNY   83  48  29 N14       29.85F
DANBURY        MOSUNNY   77  45  32 NE6G24    29.88F
WTRBRY/OXFORD  MOSUNNY   73  48  40 NE12G17   29.91F
BRIDGEPORT     MOSUNNY   71  50  47 SW3       29.88F
MERIDEN        MOSUNNY   80  50  34 N12       29.85F
NEW HAVEN      MOSUNNY   69  50  50 S7        29.87F
CHESTER        FAIR      73  50  43 S9        29.88F
GROTON         MOSUNNY   67  51  56 SW8       29.88F
WILLIMANTIC    MOSUNNY   79  45  29 NE8       29.87S

 IN RI

CITY           SKY/WX    TMP DP  RH WIND       PRES   REMARKS
PROVIDENCE     MOSUNNY   78  44  29 NE15      29.88S
BLOCK ISLAND   SUNNY     67  51  56 S6        29.89F
WESTERLY       MOSUNNY   71  42  35 S9        29.89S

 IN MA

CITY           SKY/WX    TMP DP  RH WIND       PRES   REMARKS
BOSTON         MOSUNNY   71  48  43 E14       29.90S
WORCESTER      MOSUNNY   74  42  31 NE9G17      N/A
WESTFIELD      PTSUNNY   81  43  26 N8        29.86F
PROVINCETOWN   MOSUNNY   62  52  69 N9        29.90F
NANTUCKET      MOSUNNY   72  48  42 NE18      29.89R
$$

ANZ330-335-338-340-345-350-353-355-232000-
COASTAL MARINE OBSERVATIONS


STATION/POSITION TIME  SKY/WX   TEMP    WIND        PRES    VSBY  WAVE
                                AIR SEA DIR/SP/G                  HT/PER
                 (UTC)          (F)     (DEG/KT/KT) (MB)    (MI)  (FT/S)
NY HARB ENTRANCE 1750            60 60  210/  4/  4 1012.5          3/ 8
20S FIRE ISLAND  1750            59 57   50/  4/  4 1012.7          4/10
GREAT SOUTH BAY  1800            63 64  170/  6/  6   N/A
23 SSW MONTAUK P 1850            62 58   10/  2/  2 1011.7          3/10
15 E BARNEGAT LI 1822               55                N/A           4/ 9
HUDSON CANYON    1750            54 53              1011.6          4/ 8
KINGS POINT      1800               56              1011.8
EXECUTION ROCKS  NOT AVBL
CENTRAL LI SOUND 1800            61     230/  6/  8   N/A           0
EASTERN LI SOUND 1800            59 53  190/  4/  4   N/A
ROBBINS REEF     1800                   180/ 16/ 17 1011.8
$$


>>>>>>>>>>>>>>>>>>>>>>>>>>>> KEY <<<<<<<<<<<<<<<<<<<<<<<<<<<
>                                                          <
>     SKY/WX - SKY CONDITION/PRESENT WEATHER               <
>     TMP    - TEMPERATURE IN FAHRENHEIT                   <
>     DP     - DEWPOINT IN FAHRENHEIT                      <
>     RH     - RELATIVE HUMIDITY IN PERCENT                <
>     WIND   - DIRECTION AND SPEED IN MPH                  <
>     PRES   - MEAN SEA LEVEL PRESSURE IN INCHES OF HG     <
>     WCI    - WIND CHILL INDEX                            <
>     VSB    - VISIBILITY IN MILES                         <
>     HX     - HEAT INDEX                                  <
>     TC     - TEMPERATURE IN CELSIUS                      <
>     VRB    - VARIABLE WIND DIRECTION                     <
>                                                          <
>>>>>>>>>>>>>>>>>>>>>>>>>>>> KEY <<<<<<<<<<<<<<<<<<<<<<<<<<<






USA.gov is the U.S. government's official web portal to all federal, state and local government web resources and services.